Weather History for KPNE - December, 2013

Change the Weather History Date:

Sunday, December 8, 2013

  Actual Average Record
Temperature  
Mean Temperature 30 °F -  
Max Temperature 32 °F 45 °F 60 °F (2004)
Min Temperature 27 °F 31 °F 21 °F (2005)
Degree Days  
Heating Degree Days 36    
Moisture  
Dew Point 24 °F    
Average Humidity 83    
Maximum Humidity 93    
Minimum Humidity 57    
Precipitation  
Precipitation 0.40 in - - ()
Sea Level Pressure  
Sea Level Pressure 30.51 in    
Wind  
Wind Speed 7 mph (NE)    
Max Wind Speed 12 mph    
Max Gust Speed -    
Visibility 4 miles    
Events Fog , Rain , Snow    
Averages and records for this station are not official NWS values.
T = Trace of Precipitation, MM = Missing Value Source: NWS Daily Summary

Daily Weather History Graph

Daily Weather History Graph

Search for Another Location

Airport or City:

Trip Planner

Search our weather history database for the weather conditions in past years. The results will help you decide how hot, cold, wet, or windy it might be!

Date:

Astronomy

Dec. 08, 2013 Rise Set
Actual Time 7:09 AM EST 4:34 PM EST
Civil Twilight 6:39 AM EST 5:04 PM EST
Nautical Twilight 6:05 AM EST 5:38 PM EST
Astronomical Twilight 5:32 AM EST 6:11 PM EST
Moon 11:28 AM EST (12/8) 11:21 PM EST (12/8)
Length of Visible Light 10h 25m
Length of Day
9h 24m
Waxing Crescent, 40% of the Moon is Illuminated
Dec 8
Waxing Crescent
Dec 9
First Quarter
Dec 17
Full
Dec 25
Last Quarter
Jan 1
New

Hourly Weather History & Observations

Time (EST) Temp. Windchill Dew Point Humidity Pressure Visibility Wind Dir Wind Speed Gust Speed Precip Events Conditions
12:54 AM 30.9 °F 23.5 °F 19.0 °F 61% 30.54 in 10.0 mi NNE 8.1 mph - N/A   Clear
1:54 AM 28.9 °F 21.1 °F 18.0 °F 64% 30.57 in 10.0 mi North 8.1 mph - N/A   Clear
2:54 AM 28.0 °F 24.2 °F 17.1 °F 63% 30.57 in 10.0 mi NNW 3.5 mph - N/A   Clear
3:54 AM 28.0 °F 20.0 °F 16.0 °F 61% 30.56 in 10.0 mi North 8.1 mph - N/A   Clear
4:54 AM 27.0 °F 19.5 °F 17.1 °F 66% 30.58 in 10.0 mi NNW 6.9 mph - N/A   Clear
5:54 AM 27.0 °F 20.5 °F 17.1 °F 66% 30.58 in 10.0 mi North 5.8 mph - N/A   Clear
6:54 AM 28.0 °F 20.8 °F 17.1 °F 63% 30.60 in 10.0 mi North 6.9 mph - N/A   Clear
7:54 AM 28.9 °F 25.2 °F 17.1 °F 61% 30.62 in 10.0 mi NNE 3.5 mph - N/A   Mostly Cloudy
8:54 AM 30.0 °F 21.7 °F 17.1 °F 59% 30.58 in 10.0 mi NE 9.2 mph - N/A   Overcast
9:54 AM 30.0 °F 22.4 °F 17.1 °F 59% 30.59 in 10.0 mi NE 8.1 mph - N/A   Overcast
10:54 AM 30.9 °F - 17.1 °F 57% 30.61 in 10.0 mi Calm Calm - N/A   Overcast
11:54 AM 30.0 °F 25.2 °F 19.0 °F 64% 30.58 in 2.0 mi NE 4.6 mph - 0.00 in Snow Light Snow
12:01 PM 30.2 °F 24.3 °F 21.2 °F 69% 30.57 in 1.2 mi NE 5.8 mph - 0.00 in Snow Light Snow
12:14 PM 28.4 °F 22.2 °F 23.0 °F 80% 30.57 in 0.8 mi NE 5.8 mph - 0.01 in Snow Light Snow
12:21 PM 28.4 °F 23.3 °F 24.8 °F 86% 30.58 in 0.5 mi NE 4.6 mph - 0.02 in Snow Snow
12:54 PM 28.0 °F 20.8 °F 25.0 °F 88% 30.56 in 0.5 mi NNE 6.9 mph - 0.04 in Fog , Snow Snow
1:09 PM 28.4 °F 22.2 °F 24.8 °F 86% 30.56 in 0.2 mi NNE 5.8 mph - 0.02 in Fog , Snow Heavy Snow
1:33 PM 28.4 °F - 26.6 °F 93% 30.56 in 0.2 mi Calm Calm - 0.10 in Fog , Snow Heavy Snow
1:43 PM 28.4 °F - 26.6 °F 93% 30.56 in 0.2 mi Calm Calm - 0.12 in Fog , Snow Snow
1:54 PM 28.9 °F 25.2 °F 26.1 °F 89% 30.56 in 0.2 mi ENE 3.5 mph - 0.14 in Fog , Snow Snow
2:44 PM 28.4 °F 20.4 °F 26.6 °F 93% 30.51 in 1.0 mi ENE 8.1 mph - 0.07 in Snow Light Snow
2:54 PM 28.9 °F 21.1 °F 26.1 °F 89% 30.52 in 1.0 mi ENE 8.1 mph - 0.08 in Snow Light Snow
3:06 PM 28.4 °F 23.3 °F 26.6 °F 93% 30.51 in 0.5 mi NE 4.6 mph - 0.01 in Fog , Snow Snow
3:18 PM 28.4 °F 21.2 °F 26.6 °F 93% 30.53 in 0.5 mi NE 6.9 mph - 0.02 in Fog , Snow Snow
3:31 PM 28.4 °F 21.2 °F 26.6 °F 93% 30.52 in 1.0 mi NE 6.9 mph - 0.03 in Snow Light Snow
3:46 PM 28.4 °F 20.4 °F 26.6 °F 93% 30.53 in 2.0 mi NNE 8.1 mph - 0.03 in Snow Light Snow
3:54 PM 28.9 °F 21.1 °F 26.1 °F 89% 30.53 in 1.5 mi NNE 8.1 mph - 0.03 in Snow Light Snow
4:13 PM 28.4 °F 19.7 °F 26.6 °F 93% 30.53 in 0.8 mi NNE 9.2 mph - 0.02 in Snow Light Snow
4:45 PM 28.4 °F 21.2 °F 26.6 °F 93% 30.53 in 1.5 mi NNE 6.9 mph - 0.06 in Snow Light Snow
4:54 PM 28.9 °F 21.9 °F 26.1 °F 89% 30.53 in 1.5 mi NNE 6.9 mph - 0.07 in Snow Light Snow
5:16 PM 28.4 °F 21.2 °F 26.6 °F 93% 30.51 in 2.0 mi NE 6.9 mph - 0.01 in Snow Light Snow
5:54 PM 28.9 °F 21.1 °F 26.1 °F 89% 30.52 in 3.0 mi NNE 8.1 mph - 0.02 in Snow Light Snow
6:54 PM 30.0 °F 22.4 °F 27.0 °F 88% 30.50 in 5.0 mi NE 8.1 mph - 0.01 in   Overcast
7:54 PM 30.0 °F 21.1 °F 27.0 °F 88% 30.48 in 8.0 mi NE 10.4 mph - N/A   Overcast
8:20 PM 30.2 °F 21.9 °F 26.6 °F 86% 30.45 in 6.0 mi ENE 9.2 mph - N/A   Overcast
8:54 PM 30.0 °F 21.7 °F 28.0 °F 92% 30.43 in 3.0 mi ENE 9.2 mph - N/A   Overcast
9:01 PM 30.2 °F 20.8 °F 28.4 °F 93% 30.42 in 2.5 mi ENE 11.5 mph - N/A   Overcast
9:51 PM 30.2 °F 20.8 °F 28.4 °F 93% 30.38 in 3.0 mi NE 11.5 mph - N/A   Overcast
9:54 PM 30.0 °F 21.7 °F 28.0 °F 92% 30.40 in 3.0 mi ENE 9.2 mph - N/A   Overcast
10:02 PM 30.2 °F 21.3 °F 28.4 °F 93% 30.39 in 2.5 mi NE 10.4 mph - N/A   Overcast
10:15 PM 30.2 °F 21.3 °F 28.4 °F 93% 30.38 in 2.0 mi NE 10.4 mph - 0.00 in Rain Light Freezing Rain
10:22 PM 30.2 °F 20.8 °F 28.4 °F 93% 30.38 in 1.8 mi NE 11.5 mph - 0.00 in Rain Light Freezing Rain
10:39 PM 30.2 °F 21.3 °F 28.4 °F 93% 30.39 in 2.0 mi NE 10.4 mph - 0.00 in Rain Light Freezing Rain
10:54 PM 32.0 °F 23.6 °F 28.9 °F 88% 30.37 in 2.5 mi NE 10.4 mph - 0.00 in Rain Light Freezing Rain
11:42 PM 32.0 °F 24.2 °F 30.2 °F 93% 30.35 in 3.0 mi NE 9.2 mph - 0.01 in Rain Light Freezing Rain
11:54 PM 32.0 °F 24.2 °F 30.0 °F 92% 30.36 in 2.5 mi NNE 9.2 mph - 0.01 in Rain Light Freezing Rain